Regional Weather Roundup
Issued by NWS

Home | Current Version | Previous Version | Graphics & Text | Print | Product List | Glossary On
Versions: 1 2 3 4 5 6 7 8 9 10 11 12 13 14 15 16 17 18 19 20 21 22 23 24 25 26 27 28 29 30 31 32 33 34 35 36 37 38 39 40 41 42 43 44 45 46 47 48 49 50
000
ASUS43 KDMX 201806
RWRIA

WEATHER ROUNDUP FOR IOWA
NATIONAL WEATHER SERVICE DES MOINES IA
1200 PM CST SAT JAN 20 2018

NOTE: "FAIR" INDICATES FEW OR NO CLOUDS BELOW 12,000 FEET WITH NO
SIGNIFICANT WEATHER AND/OR OBSTRUCTIONS TO VISIBILITY.

* - THESE STATIONS ARE NOT NWS STATIONS...THUS NOT UNDER NWS
QUALITY CONTROL.  THEY ALSO DO NOT REPORT WEATHER SUCH
AS PRECIPITATION OR FOG.

IAZ001>003-012>014-020>022-031>034-043>046-201900-
   NORTHWEST IOWA

CITY           SKY/WX    TMP DP  RH WIND       PRES   REMARKS
CARROLL *      SUNNY     45  34  65 CALM      29.87F
CHEROKEE *     CLOUDY    48  34  58 N5        29.87F
DENISON *      CLOUDY    45  34  65 SE5       29.87F
LE MARS *      MOSUNNY   46  34  61 NE6       29.88F
ORANGE CITY *  MOSUNNY   45  36  70 CALM      29.88F
SHELDON *      CLOUDY    39  34  81 CALM      29.87F
SIOUX CITY     SUNNY     48  33  56 NW6       29.88F
6HR MIN TEMP:  22; 6HR MAX TEMP:  48;

SPENCER        CLOUDY    44  33  65 CALM      29.89F
6HR MIN TEMP:  22; 6HR MAX TEMP:  44;

STORM LAKE *   SUNNY     45  32  61 NE6       29.86F
$$

IAZ055>058-069>071-079>083-090>094-201900-
   SOUTHWEST IOWA

CITY           SKY/WX    TMP DP  RH WIND       PRES   REMARKS
ATLANTIC *     SUNNY     41  34  75 CALM      29.87F
AUDUBON *      SUNNY     45  34  65 CALM      29.88F
CLARINDA *     CLOUDY    45  43  93 CALM        N/A
COUNCIL BLFS * SUNNY     39  34  81 CALM      29.86F
CRESTON *      CLOUDY    41  41 100 SW6       29.89F FOG
HARLAN  *      PTSUNNY   41  34  75 CALM      29.89F
LAMONI         CLOUDY    47  40  76 SW12      29.89F
6HR MIN TEMP:  30; 6HR MAX TEMP:  47;

RED OAK *      CLOUDY    43  41  93 VRB5      29.88F
SHENANDOAH *   CLOUDY    41  37  87 CALM      29.88F
$$

IAZ047>049-059>061-072>074-084-201900-
   CENTRAL IOWA

CITY           SKY/WX    TMP DP  RH WIND       PRES   REMARKS
AMES           SUNNY     42  34  73 S5        29.88F
6HR MIN TEMP:  23; 6HR MAX TEMP:  42;

ANKENY *       SUNNY     45  30  57 SW6       29.90S
BOONE *        SUNNY     43  36  75 S5        29.86F
CHARITON *     CLOUDY    45  39  81 SW9G16    29.89F
DES MOINES     MOSUNNY   45  33  63 SW8       29.89S
6HR MIN TEMP:  29; 6HR MAX TEMP:  46;

GRINNELL*      SUNNY     42  32  67 SW8       29.89F
KNOXVILLE *    CLOUDY    41  39  93 SW10      29.88F FOG
MARSHALLTOWN   SUNNY     43  31  62 SE6       29.87F
6HR MIN TEMP:  26; 6HR MAX TEMP:  43;

NEWTON *       SUNNY     43  32  65 SW9       29.88F
PELLA *        MOSUNNY   42  36  79 SW10G18   29.91F
PERRY *          N/A     43  34  70 S5        29.87F
$$

IAZ004>006-015-016-023>025-035-036-201900-
   NORTH CENTRAL IOWA

CITY           SKY/WX    TMP DP  RH WIND       PRES   REMARKS
ALGONA *       MOSUNNY   41 N/A N/A N7        29.89S
CLARION *      MOSUNNY   45  39  81 CALM      29.88S
ESTHERVILLE    CLOUDY    39  33  79 CALM      29.89S
6HR MIN TEMP:  25; 6HR MAX TEMP:  39;

FORT DODGE *   SUNNY     41  34  76 CALM      29.88S
MASON CITY     CLOUDY    42  34  73 N3        29.89S
6HR MIN TEMP:  24; 6HR MAX TEMP:  43;

FOREST CITY *    N/A     41  34  75 N5        29.89S
WEBSTER CITY * SUNNY     43  36  75 CALM      29.86S
IOWA FALLS *     N/A     46  36  69 CALM      29.88S
$$

IAZ007>011-017>019-026>030-037>042-050>054-066-201900-
   NORTHEAST IOWA

CITY           SKY/WX    TMP DP  RH WIND       PRES   REMARKS
CEDAR RAPIDS     N/A     44  31  60 S9        29.88F
6HR MIN TEMP:  27; 6HR MAX TEMP:  44;

CHARLES CITY *   N/A     45  37  76 CALM      29.88S
CLINTON *        N/A     44  33  65 W8        29.92F
DECORAH *        N/A     41  34  75 N3        29.87F
DUBUQUE          N/A     42  31  64 S6        29.88F
6HR MIN TEMP:  24; 6HR MAX TEMP:  43;

MONTICELLO *     N/A     43  32  65 CALM      29.89F
OELWEIN *        N/A     43  39  87 S6        29.87F
WATERLOO         N/A     45  32  60 SE6       29.87F
6HR MIN TEMP:  22; 6HR MAX TEMP:  45;

$$

IAZ064-065-067-068-078-201900-
   EAST CENTRAL IOWA

CITY           SKY/WX    TMP DP  RH WIND       PRES   REMARKS
DAVENPORT        N/A     46  33  60 SW12      29.93F
6HR MIN TEMP:  33; 6HR MAX TEMP:  46;

IOWA CITY        N/A     45  32  60 SW9       29.93F
6HR MIN TEMP:  25; 6HR MAX TEMP:  45;

MT. PLEASANT * CLOUDY    43  37  81 W10       29.94F
MUSCATINE *    PTSUNNY   45  37  76 SW13      29.94S
QUAD CITIES      N/A     47  36  65 W12       29.91F
6HR MIN TEMP:  25; 6HR MAX TEMP:  47;

$$

IAZ062-063-075>077-085>089-095>099-201900-
   SOUTHEAST IOWA

CITY           SKY/WX    TMP DP  RH WIND       PRES   REMARKS
BURLINGTON     CLOUDY    44  38  79 SW8       29.94F
6HR MIN TEMP:  32; 6HR MAX TEMP:  44;

FAIRFIELD *    CLOUDY    43  39  87 SW10      29.91F
FORT MADISON * CLOUDY    46  39  76 SW8       29.94F
KEOKUK *       CLOUDY    48  41  76 W9        29.93F
OSKALOOSA *    CLOUDY    40  37  90 W12       29.91F FOG     WCI  33
OTTUMWA        CLOUDY    44  38  79 SW12      29.91F
6HR MIN TEMP:  30; 6HR MAX TEMP:  44;

WASHINGTON *   CLOUDY    41  41 100 W9        29.93F
$$

ABBREVIATIONS USED IN REMARKS
   TC - TEMPERATURES IN CELSIUS
  WCI - WIND CHILL INDEX
   HX - HEAT INDEX
  VSB - VISIBILITY
$$





USA.gov is the U.S. government's official web portal to all federal, state and local government web resources and services.